DW5450 Weather Reports


time (UTC)temp
C
wind
direction
speed
KPH
gust
KPH
rain 1hr
cm
rain 24hr
cm
rain mn
cm
humidity
%
barometer
mb
20200229104620 13 320 4.8 11.3 0.00 0.00 0.00 77 1016.9
20200229103109 12 311 3.2 9.7 0.00 0.00 0.00 79 1016.8
20200229101628 12 323 4.8 8.0 0.00 0.00 0.00 79 1017.1
20200229100040 13 342 0.0 9.7 0.00 0.00 0.00 78 1017.1
20200229094548 13 303 6.4 11.3 0.00 0.00 0.00 78 1017.0
20200229093052 13 319 6.4 11.3 0.00 0.00 0.00 78 1017.1
20200229090041 13 323 4.8 8.0 0.00 0.00 0.00 79 1017.3
20200229084530 13 317 4.8 9.7 0.00 0.00 0.00 77 1017.7
20200229083112 13 323 4.8 9.7 0.00 0.00 0.00 77 1017.7
20200229081539 14 324 3.2 6.4 0.00 0.00 0.00 76 1017.8
20200229080022 15 324 1.6 8.0 0.00 0.00 0.00 75 1017.8
20200229074514 15 315 6.4 9.7 0.00 0.00 0.00 75 1018.3
20200229073010 15 314 3.2 9.7 0.00 0.00 0.00 75 1018.5
20200229071507 15 313 3.2 6.4 0.00 0.00 0.00 74 1018.5
20200229070133 15 325 3.2 9.7 0.00 0.00 0.00 72 1018.8
20200229064802 16 328 3.2 9.7 0.00 0.00 0.00 71 1018.7
20200229063135 16 313 4.8 11.3 0.00 0.00 0.00 71 1018.9
20200229061622 16 326 3.2 9.7 0.00 0.00 0.00 73 1018.8
20200229060137 16 326 3.2 11.3 0.00 0.00 0.00 73 1018.7
20200229054641 16 322 4.8 9.7 0.00 0.00 0.00 73 1018.9
20200229053143 17 329 3.2 8.0 0.00 0.00 0.00 73 1019.0
20200229051657 17 326 3.2 11.3 0.00 0.00 0.00 73 1019.0
20200229050234 17 331 4.8 8.0 0.00 0.00 0.00 73 1019.0
20200229044648 17 321 4.8 9.7 0.00 0.00 0.00 73 1019.1
20200229043056 17 329 3.2 8.0 0.00 0.00 0.00 72 1019.2
20200229041654 17 327 4.8 9.7 0.00 0.00 0.00 71 1019.1
20200229040110 17 323 3.2 9.7 0.00 0.00 0.00 71 1018.9
20200229034625 17 52 1.6 11.3 0.00 0.00 0.00 69 1018.9
20200229033133 18 27 1.6 8.0 0.00 0.00 0.00 68 1018.7
20200229031638 18 328 1.6 8.0 0.00 0.00 0.00 67 1018.6
20200229030105 18 330 1.6 6.4 0.00 0.00 0.00 67 1018.5
20200229024649 18 11 1.6 6.4 0.00 0.00 0.00 68 1018.3
20200229023122 18 333 3.2 6.4 0.00 0.00 0.00 75 1018.3
20200229021622 19 5 0.0 1.6 0.00 0.00 0.00 75 1018.0
20200229020115 20 5 0.0 4.8 0.00 0.00 0.00 74 1017.9
20200229014602 20 109 0.0 4.8 0.00 0.00 0.00 72 1017.6
20200229013119 21 109 1.6 6.4 0.00 0.00 0.00 69 1017.6
20200229011748 21 105 1.6 6.4 0.00 0.00 0.00 65 1017.6
20200229010052 22 108 3.2 6.4 0.00 0.00 0.00 65 1017.5
20200229004625 22 146 1.6 6.4 0.00 0.00 0.00 63 1017.3
20200229003053 23 160 3.2 9.7 0.00 0.00 0.00 60 1017.2
20200229001617 23 145 6.4 16.1 0.00 0.00 0.00 59 1017.0
20200229000108 23 189 6.4 12.9 0.00 0.00 0.00 61 1016.8
20200228234636 23 171 8.0 16.1 0.00 0.00 0.00 62 1016.8
20200228233139 23 181 8.0 17.7 0.00 0.00 0.00 61 1016.7
20200228231634 25 161 6.4 14.5 0.00 0.00 0.00 54 1016.8
20200228230103 25 194 6.4 12.9 0.00 0.00 0.00 49 1016.7
20200228224625 25 146 3.2 14.5 0.00 0.00 0.00 46 1016.6
20200228223215 25 186 6.4 14.5 0.00 0.00 0.00 43 1016.5
20200228221637 25 155 4.8 11.3 0.00 0.00 0.00 46 1016.4
20200228220110 25 163 4.8 12.9 0.00 0.00 0.00 49 1016.6
20200228214618 25 151 4.8 14.5 0.00 0.00 0.00 51 1016.6
20200228213129 24 202 6.4 12.9 0.00 0.00 0.00 49 1016.7
20200228211617 23 146 4.8 14.5 0.00 0.00 0.00 47 1016.9
20200228210049 23 186 9.7 16.1 0.00 0.00 0.00 48 1017.2
20200228204615 23 160 8.0 17.7 0.00 0.00 0.00 41 1017.4
20200228203103 23 150 11.3 17.7 0.00 0.00 0.00 38 1017.4
20200228201742 23 161 8.0 16.1 0.00 0.00 0.00 43 1017.8
20200228200054 23 158 9.7 17.7 0.00 0.00 0.00 44 1018.3
20200228194608 23 121 9.7 16.1 0.00 0.00 0.00 46 1018.4
20200228193030 23 165 9.7 16.1 0.00 0.00 0.00 45 1018.4
20200228191532 23 147 11.3 20.9 0.00 0.00 0.00 41 1018.4
20200228190047 23 146 8.0 19.3 0.00 0.00 0.00 38 1018.5
20200228184529 25 202 8.0 12.9 0.00 0.00 0.00 36 1018.9
20200228183109 25 132 6.4 12.9 0.00 0.00 0.00 35 1019.1
20200228181548 24 184 6.4 14.5 0.00 0.00 0.00 33 1019.3
20200228180044 25 122 4.8 9.7 0.00 0.00 0.00 30 1019.5
20200228174618 26 169 4.8 8.0 0.00 0.00 0.00 29 1019.4
20200228173028 26 36 3.2 8.0 0.00 0.00 0.00 27 1019.5
20200228171523 25 63 3.2 11.3 0.00 0.00 0.00 31 1019.5
20200228170023 24 11 1.6 6.4 0.00 0.00 0.00 35 1019.7
20200228164522 23 10 1.6 8.0 0.00 0.00 0.00 39 1019.7
20200228163034 21 9 1.6 8.0 0.00 0.00 0.00 43 1019.7
20200228161512 20 18 1.6 9.7 0.00 0.00 0.00 48 1019.5
20200228160217 18 57 3.2 8.0 0.00 0.00 0.00 52 1019.2
20200228154714 17 343 3.2 9.7 0.00 0.00 0.00 56 1019.1
20200228153134 16 338 3.2 8.0 0.00 0.00 0.00 59 1018.9
20200228151623 15 335 3.2 9.7 0.00 0.00 0.00 61 1018.8
20200228150150 14 314 1.6 8.0 0.00 0.00 0.00 64 1018.5
20200228144613 13 330 1.6 4.8 0.00 0.00 0.00 68 1018.4
20200228143137 12 19 1.6 8.0 0.00 0.00 0.00 71 1018.6
20200228141600 11 336 1.6 6.4 0.00 0.00 0.00 71 1018.3
20200228140107 11 44 1.6 8.0 0.00 0.00 0.00 72 1018.3
20200228134558 11 360 0.0 8.0 0.00 0.00 0.00 71 1018.1
20200228133131 11 355 1.6 6.4 0.00 0.00 0.00 72 1017.9
20200228131619 11 344 1.6 9.7 0.00 0.00 0.00 74 1017.9
20200228130123 11 343 0.0 4.8 0.00 0.00 0.00 75 1017.8
20200228124559 11 333 1.6 4.8 0.00 0.00 0.00 75 1017.6
20200228123101 11 9 1.6 4.8 0.00 0.00 0.00 75 1017.6
20200228121706 11 5 1.6 6.4 0.00 0.00 0.00 74 1017.5
20200228120053 11 355 1.6 6.4 0.00 0.00 0.00 75 1017.4
20200228114604 12 5 0.0 6.4 0.00 0.00 0.00 75 1017.5
20200228113049 12 355 0.0 4.8 0.00 0.00 0.00 75 1017.5
20200228111554 12 348 1.6 6.4 0.00 0.00 0.00 75 1017.3
20200228110112 12 346 0.0 6.4 0.00 0.00 0.00 75 1017.3